Observer details:
106 Crni Vrh.  Observer B. Mikuz.  0.6-m f/3.3 Deltagraph + CCD.
113 Volkssternwarte Drebach, Schoenbrunn.  Observer G. Lehmann.  0.5-m f/4.6
    reflector + CCD.
160 Castelmartini.  Observers M. Jaeger, E. Prosperi, S. Prosperi, W. Vollmann.
    Measurer E. Prosperi.  0.35-m f/10 Schmidt-Cassegrain + CCD.
203 GiaGa Observatory.  Observers S. Foglia, G. Galli.  Measurer G. Galli.
    0.28-m f/6.8 Schmidt-Cassegrain + CCD.
204 Schiaparelli Observatory.  Observer L. Buzzi.  0.60-m f/4.64 reflector
    + CCD.
246 Klet Observatory-KLENOT.  Observers M. Tichy, J. Ticha.  Measurer M. Tichy.
    1.06-m KLENOT Telescope + CCD.
291 LPL/Spacewatch II.  Observer T. H. Bressi.  1.8-m f/2.7 reflector + CCD.
461 University of Szeged, Piszkesteto Stn. (Konkoly).  Observer A. Sodor.
    Measurer K. Sarneczky.  0.60-m Schmidt + CCD.
587 Sormano.  Observers P. Sicoli, A. Testa.  Measurer P. Sicoli.  0.5-m f/6.8
    reflector + CCD.
703 Catalina Sky Survey.  Observer R. G. Matheny.  Measurers E. J. Christensen,
    D. C. Fuls, A. R. Gibbs, A. D. Grauer, J. A. Johnson, R. A. Kowalski,
    S. M. Larson, G. J. Leonard, R. G. Matheny, R. L. Seaman, F. C. Shelly.
    0.68-m Schmidt + CCD.
A17 Guidestar Observatory, Weinheim.  Observers M. Emmerich, S. Melchert.
    0.36-m f/6 Schmidt-Cassegrain + CCD.
C43 Hoyerswerda.  Observer P. Lindner.  0.30-m f/6.3 Schmidt-Cassegrain + CCD.
C47 Nonndorf.  Observer G. Dangl.  0.25-m f/4.8 reflector + CCD.
C77 Bernezzo Observatory.  Observer A. Mantero.  0.25-m f/4 reflector + CCD.
G96 Mt. Lemmon Survey.  Observer D. C. Fuls.  Measurers E. J. Christensen,
    D. C. Fuls, A. R. Gibbs, A. D. Grauer, J. A. Johnson, R. A. Kowalski,
    S. M. Larson, G. J. Leonard, R. G. Matheny, R. L. Seaman, F. C. Shelly.
    1.5-m reflector + 10K CCD.
H21 Astronomical Research Observatory, Westfield.  Observer R. Holmes.
    Measurers S. Foglia, L. Buzzi, T. Linder, R. Holmes.  0.61-m f/4.5
    astrograph + CCD.
J95 Great Shefford.  Observer P. Birtwhistle.  0.40-m f/6.0 Schmidt-Cassegrain
    + CCD.
L04 ROASTERR-1 Observatory, Cluj-Napoca.  Observer L. Hudin.  0.3-m f/5.0
    reflector + CCD.
Z99 Clixby Observatory, Cleethorpes.  Observer A. Mickleburgh.  0.36-m f/8
    Schmidt-Cassegrain + CCD.
 
Orbital elements:
2016 SG2                                                 Earth MOID = 0.1507 AU
Epoch 2016 July 31.0 TT = JDT 2457600.5                 MPC
M 358.88253              (2000.0)            P               Q
n   0.25976775     Peri.   38.19667     -0.64125317     +0.76164155
a   2.4326477      Node   192.85738     -0.76572884     -0.64301775
e   0.8777297      Incl.   24.77636     -0.04953507     +0.08018930
P   3.79           H   20.5           G   0.15           U   7
Residuals in seconds of arc
160925 G96  0.9-  0.0     160925 C77  0.2-  0.5+    160926 291  0.2+  0.1+
160925 G96  0.1-  0.0     160925 C77  0.0   0.1+    160926 291  0.2+  0.0
160925 G96  0.1-  0.0     160925 C77  0.5+  0.1+    160926 160  0.0   0.1+
160925 G96  0.3-  0.1+    160925 246  0.6-  0.0     160926 160  0.1-  0.2+
160925 703  0.7-  0.6+    160925 246  0.2+  0.6+    160926 160  0.0   0.0
160925 703  0.1-  1.0-    160925 246  0.2-  0.5+    160926 160  0.0   0.0
160925 703  0.1-  1.2-    160925 246  0.3-  0.1+    160926 160  0.2-  0.0
160925 703  0.2-  0.4+    160925 246  0.1+  0.2+    160926 461  0.1+  0.1+
160925 703  0.0   0.2-    160925 246  0.0   0.1+    160926 461  0.1+  0.0
160925 703  0.5+  0.3+    160925 246  0.5-  0.0     160926 461  0.1-  0.0
160925 703  1.0+  0.3+    160925 246  0.3-  0.4-    160927 H21  0.2-  0.4-
160925 G96  0.4-  0.1+    160925 246  0.3-  0.7+    160927 H21  0.2+  0.0
160925 G96  0.2-  0.2+    160925 203  0.4-  0.4-    160927 H21  0.3-  0.1-
160925 G96  0.2-  0.4+    160925 C47  0.0   0.5-    160927 113  0.2+  0.6+
160925 G96  0.2-  0.1+    160925 203  0.0   0.2-    160927 113  0.2-  0.8-
160925 587  0.7-  0.3-    160925 C43  0.7-  0.2-    160927 113  0.1+  0.0
160925 587  0.5-  0.5-    160925 C47  0.1-  0.2-    160927 L04  0.3-  0.2-
160925 587  0.4+  0.4-    160925 Z99  0.2+  0.1+    160927 L04  0.1+  0.3+
160925 A17  0.3+  0.2+    160925 C43  1.0-  0.1+    160927 L04  0.4-  0.0
160925 A17  0.3+  0.2-    160925 Z99  0.4+  1.0+    160927 160  0.1-  0.1+
160925 A17  0.1+  0.4-    160925 C47  0.4-  0.3-    160927 L04  0.2-  0.0
160925 A17  0.4-  0.0     160925 C43  0.4-  0.2+    160927 246  0.0   0.4+
160925 A17  0.1-  0.4-    160925 Z99  0.2-  0.4+    160927 246  0.1-  1.0-
160925 J95  0.3+  0.1-    160925 C43  0.3-  0.1-    160927 160  0.2-  0.1-
160925 J95  0.1+  0.1+    160925 C47  0.2-  0.0     160927 246  0.3-  0.3-
160925 A17  0.7+  0.2+    160925 C47  0.1-  0.0     160927 246  0.0   0.3+
160925 J95  0.2+  0.1+    160925 204  0.1-  0.0     160927 246  0.7+  0.6+
160925 106  0.4+  0.4-    160925 204  0.2-  0.1-    160927 160  0.3-  0.1-
160925 106  0.2-  0.1+    160925 204  0.1+  0.0     160927 160  0.1-  0.3+
160925 A17  1.2+  0.4+    160925 204  0.2-  0.1-    160927 160  0.1-  0.2+
160925 106  0.6-  0.5+    160926 291  0.2+  0.1+

Ephemeris:
2016 SG2                 a,e,i = 2.43, 0.88, 25                  q = 0.2974
Date    TT    R. A. (2000) Decl.     Delta      r     Elong.  Phase     V
2016 08 28    11 08 00.8 +35 38 58   0.3966  0.6836    27.6   136.9    24.1
...
2016 09 12    13 33 11.0 +72 30 36   0.1722  0.9650    71.3    99.0    20.2
...
2016 09 20    21 31 54.0 +47 49 48   0.1661  1.1027   122.6    50.1    18.7
...
2016 09 26    22 09 00.4 +22 36 59   0.2366  1.2008   143.4    29.9    19.1
2016 09 27    22 12 05.3 +19 52 32   0.2517  1.2168   144.9    28.3    19.2
2016 09 28    22 14 47.2 +17 26 24   0.2674  1.2326   145.9    27.1    19.3
...
2016 10 04    22 26 13.8 +07 21 29   0.3709  1.3256   146.5    24.6    20.1
...
2016 10 12    22 36 01.5 +00 29 14   0.5244  1.4441   141.1    25.7    21.1
...
2016 10 27    22 50 17.9 -04 51 03   0.8402  1.6517   128.3    28.2    22.5

A. U. Tomatic                (C) Copyright 2016 MPC           M.P.E.C. 2016-S64




More information about the Iaude mailing list